<?xml version="1.0" encoding="UTF-8" standalone="no" ?>
<gpx xmlns="http://www.topografix.com/GPX/1/1" xmlns:xsi="http://www.w3.org/2001/XMLSchema-instance" xsi:schemaLocation="http://www.topografix.com/GPX/1/1 http://www.topografix.com/GPX/1/1/gpx.xsd" version="1.1" creator="VisuGPX - https://www.visugpx.com">
  <metadata>
    <name>ChapelleE_GesvresRagon_11-20km</name>
    <desc><![CDATA[gnerando idor:10119982_10751486_12328489_12879936_8202803]]></desc>
  </metadata>
  <trk>
    <name><![CDATA[ChapelleE_GesvresRagonParCapellia_11km-12328489]]></name>
    <extensions>
      <line xmlns="http://www.topografix.com/GPX/gpx_style/0/2">
        <color>00FF00</color>
        <width>4</width>
      </line>
    </extensions>
    <trkseg>
      <trkpt lat="47.27977" lon="-1.557">
        <ele>40</ele>
        <time>2023-11-03T07:50:06Z</time>
      </trkpt>
      <trkpt lat="47.2798" lon="-1.55729">
        <ele>40</ele>
        <time>2023-11-03T07:50:33Z</time>
      </trkpt>
      <trkpt lat="47.27975" lon="-1.55788">
        <ele>38</ele>
        <time>2023-11-03T07:51:26Z</time>
      </trkpt>
      <trkpt lat="47.27973" lon="-1.55816">
        <ele>38</ele>
        <time>2023-11-03T07:51:52Z</time>
      </trkpt>
      <trkpt lat="47.27963" lon="-1.55911">
        <ele>36</ele>
        <time>2023-11-03T07:53:19Z</time>
      </trkpt>
      <trkpt lat="47.27963" lon="-1.55939">
        <ele>36</ele>
        <time>2023-11-03T07:53:44Z</time>
      </trkpt>
      <trkpt lat="47.2796" lon="-1.55966">
        <ele>37</ele>
        <time>2023-11-03T07:54:09Z</time>
      </trkpt>
      <trkpt lat="47.27957" lon="-1.56">
        <ele>38</ele>
        <time>2023-11-03T07:54:40Z</time>
      </trkpt>
      <trkpt lat="47.27953" lon="-1.56026">
        <ele>38</ele>
        <time>2023-11-03T07:55:04Z</time>
      </trkpt>
      <trkpt lat="47.27948" lon="-1.56059">
        <ele>38</ele>
        <time>2023-11-03T07:55:35Z</time>
      </trkpt>
      <trkpt lat="47.27939" lon="-1.5615">
        <ele>37</ele>
        <time>2023-11-03T07:56:58Z</time>
      </trkpt>
      <trkpt lat="47.27936" lon="-1.56179">
        <ele>36</ele>
        <time>2023-11-03T07:57:25Z</time>
      </trkpt>
      <trkpt lat="47.27935" lon="-1.56206">
        <ele>35</ele>
        <time>2023-11-03T07:57:49Z</time>
      </trkpt>
      <trkpt lat="47.27929" lon="-1.56235">
        <ele>35</ele>
        <time>2023-11-03T07:58:17Z</time>
      </trkpt>
      <trkpt lat="47.27948" lon="-1.56249">
        <ele>34</ele>
        <time>2023-11-03T07:58:45Z</time>
      </trkpt>
      <trkpt lat="47.27966" lon="-1.5627">
        <ele>33</ele>
        <time>2023-11-03T07:59:16Z</time>
      </trkpt>
      <trkpt lat="47.27956" lon="-1.56296">
        <ele>32</ele>
        <time>2023-11-03T07:59:43Z</time>
      </trkpt>
      <trkpt lat="47.27941" lon="-1.56313">
        <ele>31</ele>
        <time>2023-11-03T08:00:08Z</time>
      </trkpt>
      <trkpt lat="47.2793" lon="-1.56335">
        <ele>30</ele>
        <time>2023-11-03T08:00:33Z</time>
      </trkpt>
      <trkpt lat="47.27932" lon="-1.56367">
        <ele>29</ele>
        <time>2023-11-03T08:01:02Z</time>
      </trkpt>
      <trkpt lat="47.2792" lon="-1.56392">
        <ele>28</ele>
        <time>2023-11-03T08:01:29Z</time>
      </trkpt>
      <trkpt lat="47.27903" lon="-1.56381">
        <ele>26</ele>
        <time>2023-11-03T08:01:54Z</time>
      </trkpt>
      <trkpt lat="47.27891" lon="-1.56405">
        <ele>24</ele>
        <time>2023-11-03T08:02:21Z</time>
      </trkpt>
      <trkpt lat="47.27885" lon="-1.56434">
        <ele>21</ele>
        <time>2023-11-03T08:02:49Z</time>
      </trkpt>
      <trkpt lat="47.27871" lon="-1.56454">
        <ele>18</ele>
        <time>2023-11-03T08:03:15Z</time>
      </trkpt>
      <trkpt lat="47.2786" lon="-1.56481">
        <ele>16</ele>
        <time>2023-11-03T08:03:43Z</time>
      </trkpt>
      <trkpt lat="47.27863" lon="-1.56514">
        <ele>14</ele>
        <time>2023-11-03T08:04:13Z</time>
      </trkpt>
      <trkpt lat="47.27875" lon="-1.56536">
        <ele>14</ele>
        <time>2023-11-03T08:04:39Z</time>
      </trkpt>
      <trkpt lat="47.27889" lon="-1.56554">
        <ele>15</ele>
        <time>2023-11-03T08:05:04Z</time>
      </trkpt>
      <trkpt lat="47.27902" lon="-1.56574">
        <ele>15</ele>
        <time>2023-11-03T08:05:29Z</time>
      </trkpt>
      <trkpt lat="47.27916" lon="-1.56591">
        <ele>16</ele>
        <time>2023-11-03T08:05:53Z</time>
      </trkpt>
      <trkpt lat="47.2793" lon="-1.56611">
        <ele>17</ele>
        <time>2023-11-03T08:06:19Z</time>
      </trkpt>
      <trkpt lat="47.27937" lon="-1.56638">
        <ele>16</ele>
        <time>2023-11-03T08:06:45Z</time>
      </trkpt>
      <trkpt lat="47.27939" lon="-1.56667">
        <ele>16</ele>
        <time>2023-11-03T08:07:12Z</time>
      </trkpt>
      <trkpt lat="47.2792" lon="-1.56666">
        <ele>16</ele>
        <time>2023-11-03T08:07:37Z</time>
      </trkpt>
      <trkpt lat="47.27901" lon="-1.56662">
        <ele>16</ele>
        <time>2023-11-03T08:08:02Z</time>
      </trkpt>
      <trkpt lat="47.27886" lon="-1.56679">
        <ele>18</ele>
        <time>2023-11-03T08:08:28Z</time>
      </trkpt>
      <trkpt lat="47.27871" lon="-1.56699">
        <ele>21</ele>
        <time>2023-11-03T08:08:55Z</time>
      </trkpt>
      <trkpt lat="47.27854" lon="-1.56709">
        <ele>22</ele>
        <time>2023-11-03T08:09:19Z</time>
      </trkpt>
      <trkpt lat="47.27836" lon="-1.56718">
        <ele>24</ele>
        <time>2023-11-03T08:09:45Z</time>
      </trkpt>
      <trkpt lat="47.2782" lon="-1.56735">
        <ele>27</ele>
        <time>2023-11-03T08:10:11Z</time>
      </trkpt>
      <trkpt lat="47.27807" lon="-1.56755">
        <ele>29</ele>
        <time>2023-11-03T08:10:36Z</time>
      </trkpt>
      <trkpt lat="47.27791" lon="-1.56769">
        <ele>30</ele>
        <time>2023-11-03T08:11:01Z</time>
      </trkpt>
      <trkpt lat="47.27773" lon="-1.56782">
        <ele>31</ele>
        <time>2023-11-03T08:11:27Z</time>
      </trkpt>
      <trkpt lat="47.27759" lon="-1.56803">
        <ele>33</ele>
        <time>2023-11-03T08:11:54Z</time>
      </trkpt>
      <trkpt lat="47.2774" lon="-1.56821">
        <ele>34</ele>
        <time>2023-11-03T08:12:24Z</time>
      </trkpt>
      <trkpt lat="47.27728" lon="-1.56844">
        <ele>34</ele>
        <time>2023-11-03T08:12:51Z</time>
      </trkpt>
      <trkpt lat="47.27712" lon="-1.56857">
        <ele>34</ele>
        <time>2023-11-03T08:13:15Z</time>
      </trkpt>
      <trkpt lat="47.27695" lon="-1.5687">
        <ele>33</ele>
        <time>2023-11-03T08:13:40Z</time>
      </trkpt>
      <trkpt lat="47.2768" lon="-1.56889">
        <ele>33</ele>
        <time>2023-11-03T08:14:07Z</time>
      </trkpt>
      <trkpt lat="47.27665" lon="-1.56909">
        <ele>33</ele>
        <time>2023-11-03T08:14:34Z</time>
      </trkpt>
      <trkpt lat="47.27634" lon="-1.56944">
        <ele>35</ele>
        <time>2023-11-03T08:15:26Z</time>
      </trkpt>
      <trkpt lat="47.27616" lon="-1.56964">
        <ele>37</ele>
        <time>2023-11-03T08:15:56Z</time>
      </trkpt>
      <trkpt lat="47.27599" lon="-1.56988">
        <ele>38</ele>
        <time>2023-11-03T08:16:27Z</time>
      </trkpt>
      <trkpt lat="47.27583" lon="-1.57006">
        <ele>39</ele>
        <time>2023-11-03T08:16:54Z</time>
      </trkpt>
      <trkpt lat="47.27567" lon="-1.57027">
        <ele>39</ele>
        <time>2023-11-03T08:17:23Z</time>
      </trkpt>
      <trkpt lat="47.2755" lon="-1.5705">
        <ele>38</ele>
        <time>2023-11-03T08:17:54Z</time>
      </trkpt>
      <trkpt lat="47.27524" lon="-1.57097">
        <ele>39</ele>
        <time>2023-11-03T08:18:49Z</time>
      </trkpt>
      <trkpt lat="47.27525" lon="-1.57124">
        <ele>40</ele>
        <time>2023-11-03T08:19:13Z</time>
      </trkpt>
      <trkpt lat="47.27509" lon="-1.57137">
        <ele>40</ele>
        <time>2023-11-03T08:19:38Z</time>
      </trkpt>
      <trkpt lat="47.27491" lon="-1.57142">
        <ele>39</ele>
        <time>2023-11-03T08:20:02Z</time>
      </trkpt>
      <trkpt lat="47.27452" lon="-1.57159">
        <ele>38</ele>
        <time>2023-11-03T08:20:56Z</time>
      </trkpt>
      <trkpt lat="47.27433" lon="-1.57168">
        <ele>37</ele>
        <time>2023-11-03T08:21:23Z</time>
      </trkpt>
      <trkpt lat="47.27429" lon="-1.57196">
        <ele>37</ele>
        <time>2023-11-03T08:21:49Z</time>
      </trkpt>
      <trkpt lat="47.27428" lon="-1.57225">
        <ele>38</ele>
        <time>2023-11-03T08:22:15Z</time>
      </trkpt>
      <trkpt lat="47.27419" lon="-1.57314">
        <ele>40</ele>
        <time>2023-11-03T08:23:37Z</time>
      </trkpt>
      <trkpt lat="47.27417" lon="-1.57342">
        <ele>40</ele>
        <time>2023-11-03T08:24:02Z</time>
      </trkpt>
      <trkpt lat="47.27413" lon="-1.57372">
        <ele>39</ele>
        <time>2023-11-03T08:24:30Z</time>
      </trkpt>
      <trkpt lat="47.2741" lon="-1.57403">
        <ele>39</ele>
        <time>2023-11-03T08:24:58Z</time>
      </trkpt>
      <trkpt lat="47.27405" lon="-1.5743">
        <ele>39</ele>
        <time>2023-11-03T08:25:23Z</time>
      </trkpt>
      <trkpt lat="47.27401" lon="-1.57457">
        <ele>39</ele>
        <time>2023-11-03T08:25:48Z</time>
      </trkpt>
      <trkpt lat="47.27398" lon="-1.57486">
        <ele>39</ele>
        <time>2023-11-03T08:26:15Z</time>
      </trkpt>
      <trkpt lat="47.27397" lon="-1.57513">
        <ele>39</ele>
        <time>2023-11-03T08:26:39Z</time>
      </trkpt>
      <trkpt lat="47.27416" lon="-1.57528">
        <ele>40</ele>
        <time>2023-11-03T08:27:08Z</time>
      </trkpt>
      <trkpt lat="47.27437" lon="-1.5754">
        <ele>40</ele>
        <time>2023-11-03T08:27:38Z</time>
      </trkpt>
      <trkpt lat="47.27452" lon="-1.57559">
        <ele>40</ele>
        <time>2023-11-03T08:28:05Z</time>
      </trkpt>
      <trkpt lat="47.27471" lon="-1.57576">
        <ele>41</ele>
        <time>2023-11-03T08:28:34Z</time>
      </trkpt>
      <trkpt lat="47.27483" lon="-1.576">
        <ele>41</ele>
        <time>2023-11-03T08:29:01Z</time>
      </trkpt>
      <trkpt lat="47.27491" lon="-1.57627">
        <ele>41</ele>
        <time>2023-11-03T08:29:28Z</time>
      </trkpt>
      <trkpt lat="47.27485" lon="-1.57652">
        <ele>41</ele>
        <time>2023-11-03T08:29:52Z</time>
      </trkpt>
      <trkpt lat="47.27475" lon="-1.57679">
        <ele>40</ele>
        <time>2023-11-03T08:30:20Z</time>
      </trkpt>
      <trkpt lat="47.27467" lon="-1.57705">
        <ele>39</ele>
        <time>2023-11-03T08:30:46Z</time>
      </trkpt>
      <trkpt lat="47.27456" lon="-1.57729">
        <ele>39</ele>
        <time>2023-11-03T08:31:12Z</time>
      </trkpt>
      <trkpt lat="47.27446" lon="-1.5776">
        <ele>38</ele>
        <time>2023-11-03T08:31:43Z</time>
      </trkpt>
      <trkpt lat="47.27441" lon="-1.57787">
        <ele>38</ele>
        <time>2023-11-03T08:32:08Z</time>
      </trkpt>
      <trkpt lat="47.27438" lon="-1.57823">
        <ele>38</ele>
        <time>2023-11-03T08:32:41Z</time>
      </trkpt>
      <trkpt lat="47.27426" lon="-1.57918">
        <ele>39</ele>
        <time>2023-11-03T08:34:09Z</time>
      </trkpt>
      <trkpt lat="47.27423" lon="-1.57952">
        <ele>40</ele>
        <time>2023-11-03T08:34:40Z</time>
      </trkpt>
      <trkpt lat="47.27417" lon="-1.57977">
        <ele>41</ele>
        <time>2023-11-03T08:35:04Z</time>
      </trkpt>
      <trkpt lat="47.27413" lon="-1.58003">
        <ele>42</ele>
        <time>2023-11-03T08:35:28Z</time>
      </trkpt>
      <trkpt lat="47.2741" lon="-1.58038">
        <ele>42</ele>
        <time>2023-11-03T08:36:00Z</time>
      </trkpt>
      <trkpt lat="47.2741" lon="-1.58067">
        <ele>42</ele>
        <time>2023-11-03T08:36:26Z</time>
      </trkpt>
      <trkpt lat="47.27408" lon="-1.58098">
        <ele>42</ele>
        <time>2023-11-03T08:36:54Z</time>
      </trkpt>
      <trkpt lat="47.27401" lon="-1.58125">
        <ele>42</ele>
        <time>2023-11-03T08:37:20Z</time>
      </trkpt>
      <trkpt lat="47.27397" lon="-1.58152">
        <ele>42</ele>
        <time>2023-11-03T08:37:45Z</time>
      </trkpt>
      <trkpt lat="47.27383" lon="-1.58174">
        <ele>41</ele>
        <time>2023-11-03T08:38:13Z</time>
      </trkpt>
      <trkpt lat="47.27368" lon="-1.58193">
        <ele>41</ele>
        <time>2023-11-03T08:38:39Z</time>
      </trkpt>
      <trkpt lat="47.2736" lon="-1.58222">
        <ele>41</ele>
        <time>2023-11-03T08:39:08Z</time>
      </trkpt>
      <trkpt lat="47.27353" lon="-1.5825">
        <ele>40</ele>
        <time>2023-11-03T08:39:35Z</time>
      </trkpt>
      <trkpt lat="47.27345" lon="-1.58278">
        <ele>41</ele>
        <time>2023-11-03T08:40:02Z</time>
      </trkpt>
      <trkpt lat="47.27341" lon="-1.58305">
        <ele>42</ele>
        <time>2023-11-03T08:40:27Z</time>
      </trkpt>
      <trkpt lat="47.27323" lon="-1.58357">
        <ele>44</ele>
        <time>2023-11-03T08:41:20Z</time>
      </trkpt>
      <trkpt lat="47.27319" lon="-1.58387">
        <ele>45</ele>
        <time>2023-11-03T08:41:48Z</time>
      </trkpt>
      <trkpt lat="47.27337" lon="-1.58399">
        <ele>46</ele>
        <time>2023-11-03T08:42:14Z</time>
      </trkpt>
      <trkpt lat="47.27362" lon="-1.58406">
        <ele>47</ele>
        <time>2023-11-03T08:42:48Z</time>
      </trkpt>
      <trkpt lat="47.27384" lon="-1.58416">
        <ele>48</ele>
        <time>2023-11-03T08:43:19Z</time>
      </trkpt>
      <trkpt lat="47.27404" lon="-1.58423">
        <ele>49</ele>
        <time>2023-11-03T08:43:46Z</time>
      </trkpt>
      <trkpt lat="47.27426" lon="-1.5842">
        <ele>49</ele>
        <time>2023-11-03T08:44:16Z</time>
      </trkpt>
      <trkpt lat="47.27443" lon="-1.58427">
        <ele>50</ele>
        <time>2023-11-03T08:44:39Z</time>
      </trkpt>
      <trkpt lat="47.27465" lon="-1.58434">
        <ele>51</ele>
        <time>2023-11-03T08:45:09Z</time>
      </trkpt>
      <trkpt lat="47.27485" lon="-1.58436">
        <ele>51</ele>
        <time>2023-11-03T08:45:36Z</time>
      </trkpt>
      <trkpt lat="47.27503" lon="-1.58441">
        <ele>52</ele>
        <time>2023-11-03T08:46:00Z</time>
      </trkpt>
      <trkpt lat="47.27521" lon="-1.58448">
        <ele>52</ele>
        <time>2023-11-03T08:46:25Z</time>
      </trkpt>
      <trkpt lat="47.27541" lon="-1.58451">
        <ele>52</ele>
        <time>2023-11-03T08:46:52Z</time>
      </trkpt>
      <trkpt lat="47.27556" lon="-1.58467">
        <ele>53</ele>
        <time>2023-11-03T08:47:17Z</time>
      </trkpt>
      <trkpt lat="47.27574" lon="-1.58478">
        <ele>52</ele>
        <time>2023-11-03T08:47:43Z</time>
      </trkpt>
      <trkpt lat="47.27592" lon="-1.58484">
        <ele>52</ele>
        <time>2023-11-03T08:48:07Z</time>
      </trkpt>
      <trkpt lat="47.27611" lon="-1.58494">
        <ele>51</ele>
        <time>2023-11-03T08:48:34Z</time>
      </trkpt>
      <trkpt lat="47.27629" lon="-1.58501">
        <ele>51</ele>
        <time>2023-11-03T08:48:59Z</time>
      </trkpt>
      <trkpt lat="47.27646" lon="-1.58511">
        <ele>50</ele>
        <time>2023-11-03T08:49:24Z</time>
      </trkpt>
      <trkpt lat="47.27665" lon="-1.58521">
        <ele>50</ele>
        <time>2023-11-03T08:49:50Z</time>
      </trkpt>
      <trkpt lat="47.27684" lon="-1.58533">
        <ele>51</ele>
        <time>2023-11-03T08:50:18Z</time>
      </trkpt>
      <trkpt lat="47.27706" lon="-1.58536">
        <ele>52</ele>
        <time>2023-11-03T08:50:48Z</time>
      </trkpt>
      <trkpt lat="47.27722" lon="-1.5855">
        <ele>52</ele>
        <time>2023-11-03T08:51:12Z</time>
      </trkpt>
      <trkpt lat="47.2774" lon="-1.58559">
        <ele>53</ele>
        <time>2023-11-03T08:51:38Z</time>
      </trkpt>
      <trkpt lat="47.2776" lon="-1.58566">
        <ele>53</ele>
        <time>2023-11-03T08:52:05Z</time>
      </trkpt>
      <trkpt lat="47.27779" lon="-1.58577">
        <ele>53</ele>
        <time>2023-11-03T08:52:32Z</time>
      </trkpt>
      <trkpt lat="47.27797" lon="-1.58581">
        <ele>52</ele>
        <time>2023-11-03T08:52:57Z</time>
      </trkpt>
      <trkpt lat="47.27819" lon="-1.58584">
        <ele>52</ele>
        <time>2023-11-03T08:53:26Z</time>
      </trkpt>
      <trkpt lat="47.2784" lon="-1.58589">
        <ele>52</ele>
        <time>2023-11-03T08:53:55Z</time>
      </trkpt>
      <trkpt lat="47.2786" lon="-1.58598">
        <ele>52</ele>
        <time>2023-11-03T08:54:22Z</time>
      </trkpt>
      <trkpt lat="47.2788" lon="-1.58603">
        <ele>53</ele>
        <time>2023-11-03T08:54:50Z</time>
      </trkpt>
      <trkpt lat="47.27901" lon="-1.58604">
        <ele>53</ele>
        <time>2023-11-03T08:55:18Z</time>
      </trkpt>
      <trkpt lat="47.2792" lon="-1.58606">
        <ele>53</ele>
        <time>2023-11-03T08:55:43Z</time>
      </trkpt>
      <trkpt lat="47.27918" lon="-1.58635">
        <ele>53</ele>
        <time>2023-11-03T08:56:09Z</time>
      </trkpt>
      <trkpt lat="47.27938" lon="-1.58643">
        <ele>53</ele>
        <time>2023-11-03T08:56:37Z</time>
      </trkpt>
      <trkpt lat="47.27957" lon="-1.58641">
        <ele>53</ele>
        <time>2023-11-03T08:57:02Z</time>
      </trkpt>
      <trkpt lat="47.27975" lon="-1.58636">
        <ele>53</ele>
        <time>2023-11-03T08:57:27Z</time>
      </trkpt>
      <trkpt lat="47.27997" lon="-1.5864">
        <ele>53</ele>
        <time>2023-11-03T08:57:56Z</time>
      </trkpt>
      <trkpt lat="47.28016" lon="-1.58636">
        <ele>53</ele>
        <time>2023-11-03T08:58:22Z</time>
      </trkpt>
      <trkpt lat="47.2806" lon="-1.58641">
        <ele>52</ele>
        <time>2023-11-03T08:59:21Z</time>
      </trkpt>
      <trkpt lat="47.28081" lon="-1.58644">
        <ele>52</ele>
        <time>2023-11-03T08:59:49Z</time>
      </trkpt>
      <trkpt lat="47.28141" lon="-1.58654">
        <ele>51</ele>
        <time>2023-11-03T09:01:10Z</time>
      </trkpt>
      <trkpt lat="47.2816" lon="-1.58656">
        <ele>50</ele>
        <time>2023-11-03T09:01:35Z</time>
      </trkpt>
      <trkpt lat="47.28166" lon="-1.58682">
        <ele>50</ele>
        <time>2023-11-03T09:02:00Z</time>
      </trkpt>
      <trkpt lat="47.28155" lon="-1.58706">
        <ele>50</ele>
        <time>2023-11-03T09:02:26Z</time>
      </trkpt>
      <trkpt lat="47.28146" lon="-1.58729">
        <ele>50</ele>
        <time>2023-11-03T09:02:50Z</time>
      </trkpt>
      <trkpt lat="47.28136" lon="-1.58757">
        <ele>50</ele>
        <time>2023-11-03T09:03:19Z</time>
      </trkpt>
      <trkpt lat="47.2814" lon="-1.58785">
        <ele>50</ele>
        <time>2023-11-03T09:03:45Z</time>
      </trkpt>
      <trkpt lat="47.28155" lon="-1.58811">
        <ele>50</ele>
        <time>2023-11-03T09:04:16Z</time>
      </trkpt>
      <trkpt lat="47.28173" lon="-1.58818">
        <ele>49</ele>
        <time>2023-11-03T09:04:41Z</time>
      </trkpt>
      <trkpt lat="47.28192" lon="-1.5883">
        <ele>49</ele>
        <time>2023-11-03T09:05:08Z</time>
      </trkpt>
      <trkpt lat="47.28209" lon="-1.58849">
        <ele>49</ele>
        <time>2023-11-03T09:05:37Z</time>
      </trkpt>
      <trkpt lat="47.28223" lon="-1.58868">
        <ele>49</ele>
        <time>2023-11-03T09:06:02Z</time>
      </trkpt>
      <trkpt lat="47.28212" lon="-1.58893">
        <ele>49</ele>
        <time>2023-11-03T09:06:29Z</time>
      </trkpt>
      <trkpt lat="47.28188" lon="-1.58942">
        <ele>51</ele>
        <time>2023-11-03T09:07:24Z</time>
      </trkpt>
      <trkpt lat="47.28175" lon="-1.58966">
        <ele>51</ele>
        <time>2023-11-03T09:07:51Z</time>
      </trkpt>
      <trkpt lat="47.2816" lon="-1.58988">
        <ele>52</ele>
        <time>2023-11-03T09:08:20Z</time>
      </trkpt>
      <trkpt lat="47.28146" lon="-1.59014">
        <ele>53</ele>
        <time>2023-11-03T09:08:50Z</time>
      </trkpt>
      <trkpt lat="47.28132" lon="-1.59041">
        <ele>53</ele>
        <time>2023-11-03T09:09:21Z</time>
      </trkpt>
      <trkpt lat="47.28117" lon="-1.59062">
        <ele>53</ele>
        <time>2023-11-03T09:09:48Z</time>
      </trkpt>
      <trkpt lat="47.28104" lon="-1.59087">
        <ele>53</ele>
        <time>2023-11-03T09:10:17Z</time>
      </trkpt>
      <trkpt lat="47.28089" lon="-1.59107">
        <ele>53</ele>
        <time>2023-11-03T09:10:44Z</time>
      </trkpt>
      <trkpt lat="47.2809" lon="-1.59139">
        <ele>53</ele>
        <time>2023-11-03T09:11:13Z</time>
      </trkpt>
      <trkpt lat="47.28094" lon="-1.59165">
        <ele>53</ele>
        <time>2023-11-03T09:11:37Z</time>
      </trkpt>
      <trkpt lat="47.28108" lon="-1.59184">
        <ele>53</ele>
        <time>2023-11-03T09:12:02Z</time>
      </trkpt>
      <trkpt lat="47.28121" lon="-1.59206">
        <ele>53</ele>
        <time>2023-11-03T09:12:29Z</time>
      </trkpt>
      <trkpt lat="47.28139" lon="-1.59227">
        <ele>53</ele>
        <time>2023-11-03T09:12:59Z</time>
      </trkpt>
      <trkpt lat="47.28153" lon="-1.59247">
        <ele>52</ele>
        <time>2023-11-03T09:13:25Z</time>
      </trkpt>
      <trkpt lat="47.28166" lon="-1.59267">
        <ele>52</ele>
        <time>2023-11-03T09:13:50Z</time>
      </trkpt>
      <trkpt lat="47.28181" lon="-1.59283">
        <ele>53</ele>
        <time>2023-11-03T09:14:15Z</time>
      </trkpt>
      <trkpt lat="47.28197" lon="-1.59298">
        <ele>53</ele>
        <time>2023-11-03T09:14:40Z</time>
      </trkpt>
      <trkpt lat="47.28211" lon="-1.59319">
        <ele>53</ele>
        <time>2023-11-03T09:15:07Z</time>
      </trkpt>
      <trkpt lat="47.28224" lon="-1.59343">
        <ele>54</ele>
        <time>2023-11-03T09:15:35Z</time>
      </trkpt>
      <trkpt lat="47.28241" lon="-1.59357">
        <ele>54</ele>
        <time>2023-11-03T09:16:01Z</time>
      </trkpt>
      <trkpt lat="47.28258" lon="-1.59374">
        <ele>54</ele>
        <time>2023-11-03T09:16:28Z</time>
      </trkpt>
      <trkpt lat="47.28277" lon="-1.5939">
        <ele>55</ele>
        <time>2023-11-03T09:16:57Z</time>
      </trkpt>
      <trkpt lat="47.28295" lon="-1.59402">
        <ele>55</ele>
        <time>2023-11-03T09:17:24Z</time>
      </trkpt>
      <trkpt lat="47.28315" lon="-1.59415">
        <ele>54</ele>
        <time>2023-11-03T09:17:53Z</time>
      </trkpt>
      <trkpt lat="47.28357" lon="-1.59427">
        <ele>54</ele>
        <time>2023-11-03T09:18:50Z</time>
      </trkpt>
      <trkpt lat="47.28376" lon="-1.59435">
        <ele>54</ele>
        <time>2023-11-03T09:19:16Z</time>
      </trkpt>
      <trkpt lat="47.28399" lon="-1.59437">
        <ele>54</ele>
        <time>2023-11-03T09:19:47Z</time>
      </trkpt>
      <trkpt lat="47.28421" lon="-1.59442">
        <ele>53</ele>
        <time>2023-11-03T09:20:17Z</time>
      </trkpt>
      <trkpt lat="47.28464" lon="-1.59454">
        <ele>54</ele>
        <time>2023-11-03T09:21:15Z</time>
      </trkpt>
      <trkpt lat="47.28483" lon="-1.59457">
        <ele>54</ele>
        <time>2023-11-03T09:21:41Z</time>
      </trkpt>
      <trkpt lat="47.28504" lon="-1.59465">
        <ele>54</ele>
        <time>2023-11-03T09:22:10Z</time>
      </trkpt>
      <trkpt lat="47.28524" lon="-1.59468">
        <ele>53</ele>
        <time>2023-11-03T09:22:37Z</time>
      </trkpt>
      <trkpt lat="47.28545" lon="-1.59475">
        <ele>53</ele>
        <time>2023-11-03T09:23:05Z</time>
      </trkpt>
      <trkpt lat="47.28565" lon="-1.59483">
        <ele>52</ele>
        <time>2023-11-03T09:23:33Z</time>
      </trkpt>
      <trkpt lat="47.28584" lon="-1.59491">
        <ele>51</ele>
        <time>2023-11-03T09:23:59Z</time>
      </trkpt>
      <trkpt lat="47.28604" lon="-1.59495">
        <ele>51</ele>
        <time>2023-11-03T09:24:26Z</time>
      </trkpt>
      <trkpt lat="47.28623" lon="-1.59499">
        <ele>51</ele>
        <time>2023-11-03T09:24:52Z</time>
      </trkpt>
      <trkpt lat="47.28642" lon="-1.59505">
        <ele>52</ele>
        <time>2023-11-03T09:25:18Z</time>
      </trkpt>
      <trkpt lat="47.28661" lon="-1.5951">
        <ele>52</ele>
        <time>2023-11-03T09:25:43Z</time>
      </trkpt>
      <trkpt lat="47.28683" lon="-1.59515">
        <ele>52</ele>
        <time>2023-11-03T09:26:13Z</time>
      </trkpt>
      <trkpt lat="47.28701" lon="-1.59525">
        <ele>52</ele>
        <time>2023-11-03T09:26:39Z</time>
      </trkpt>
      <trkpt lat="47.28717" lon="-1.59539">
        <ele>52</ele>
        <time>2023-11-03T09:27:04Z</time>
      </trkpt>
      <trkpt lat="47.28732" lon="-1.59554">
        <ele>52</ele>
        <time>2023-11-03T09:27:28Z</time>
      </trkpt>
      <trkpt lat="47.2875" lon="-1.59574">
        <ele>52</ele>
        <time>2023-11-03T09:27:58Z</time>
      </trkpt>
      <trkpt lat="47.28766" lon="-1.59596">
        <ele>52</ele>
        <time>2023-11-03T09:28:27Z</time>
      </trkpt>
      <trkpt lat="47.28782" lon="-1.59615">
        <ele>53</ele>
        <time>2023-11-03T09:28:55Z</time>
      </trkpt>
      <trkpt lat="47.28797" lon="-1.59632">
        <ele>54</ele>
        <time>2023-11-03T09:29:20Z</time>
      </trkpt>
      <trkpt lat="47.28816" lon="-1.59647">
        <ele>55</ele>
        <time>2023-11-03T09:29:49Z</time>
      </trkpt>
      <trkpt lat="47.28838" lon="-1.59649">
        <ele>56</ele>
        <time>2023-11-03T09:30:18Z</time>
      </trkpt>
      <trkpt lat="47.2886" lon="-1.59648">
        <ele>56</ele>
        <time>2023-11-03T09:30:47Z</time>
      </trkpt>
      <trkpt lat="47.28878" lon="-1.59646">
        <ele>57</ele>
        <time>2023-11-03T09:31:11Z</time>
      </trkpt>
      <trkpt lat="47.28898" lon="-1.59647">
        <ele>57</ele>
        <time>2023-11-03T09:31:38Z</time>
      </trkpt>
      <trkpt lat="47.28919" lon="-1.59644">
        <ele>58</ele>
        <time>2023-11-03T09:32:06Z</time>
      </trkpt>
      <trkpt lat="47.28938" lon="-1.59651">
        <ele>59</ele>
        <time>2023-11-03T09:32:32Z</time>
      </trkpt>
      <trkpt lat="47.28957" lon="-1.59656">
        <ele>59</ele>
        <time>2023-11-03T09:32:58Z</time>
      </trkpt>
      <trkpt lat="47.28996" lon="-1.59671">
        <ele>60</ele>
        <time>2023-11-03T09:33:52Z</time>
      </trkpt>
      <trkpt lat="47.29018" lon="-1.59676">
        <ele>59</ele>
        <time>2023-11-03T09:34:22Z</time>
      </trkpt>
      <trkpt lat="47.29039" lon="-1.59686">
        <ele>59</ele>
        <time>2023-11-03T09:34:51Z</time>
      </trkpt>
      <trkpt lat="47.29075" lon="-1.59698">
        <ele>58</ele>
        <time>2023-11-03T09:35:40Z</time>
      </trkpt>
      <trkpt lat="47.29094" lon="-1.59704">
        <ele>57</ele>
        <time>2023-11-03T09:36:06Z</time>
      </trkpt>
      <trkpt lat="47.29117" lon="-1.59706">
        <ele>56</ele>
        <time>2023-11-03T09:36:37Z</time>
      </trkpt>
      <trkpt lat="47.29138" lon="-1.59697">
        <ele>55</ele>
        <time>2023-11-03T09:37:06Z</time>
      </trkpt>
      <trkpt lat="47.29157" lon="-1.59699">
        <ele>54</ele>
        <time>2023-11-03T09:37:32Z</time>
      </trkpt>
      <trkpt lat="47.29178" lon="-1.59702">
        <ele>53</ele>
        <time>2023-11-03T09:38:00Z</time>
      </trkpt>
      <trkpt lat="47.29216" lon="-1.59703">
        <ele>52</ele>
        <time>2023-11-03T09:38:51Z</time>
      </trkpt>
      <trkpt lat="47.29236" lon="-1.59705">
        <ele>52</ele>
        <time>2023-11-03T09:39:17Z</time>
      </trkpt>
      <trkpt lat="47.29244" lon="-1.59681">
        <ele>52</ele>
        <time>2023-11-03T09:39:42Z</time>
      </trkpt>
      <trkpt lat="47.29241" lon="-1.59653">
        <ele>52</ele>
        <time>2023-11-03T09:40:07Z</time>
      </trkpt>
      <trkpt lat="47.29237" lon="-1.59624">
        <ele>53</ele>
        <time>2023-11-03T09:40:34Z</time>
      </trkpt>
      <trkpt lat="47.29254" lon="-1.59611">
        <ele>53</ele>
        <time>2023-11-03T09:41:00Z</time>
      </trkpt>
      <trkpt lat="47.29263" lon="-1.59583">
        <ele>53</ele>
        <time>2023-11-03T09:41:28Z</time>
      </trkpt>
      <trkpt lat="47.29266" lon="-1.59553">
        <ele>53</ele>
        <time>2023-11-03T09:41:55Z</time>
      </trkpt>
      <trkpt lat="47.2927" lon="-1.59525">
        <ele>53</ele>
        <time>2023-11-03T09:42:21Z</time>
      </trkpt>
      <trkpt lat="47.29275" lon="-1.59495">
        <ele>53</ele>
        <time>2023-11-03T09:42:49Z</time>
      </trkpt>
      <trkpt lat="47.29278" lon="-1.59467">
        <ele>53</ele>
        <time>2023-11-03T09:43:15Z</time>
      </trkpt>
      <trkpt lat="47.29282" lon="-1.5944">
        <ele>53</ele>
        <time>2023-11-03T09:43:40Z</time>
      </trkpt>
      <trkpt lat="47.29283" lon="-1.59413">
        <ele>52</ele>
        <time>2023-11-03T09:44:04Z</time>
      </trkpt>
      <trkpt lat="47.29288" lon="-1.59384">
        <ele>52</ele>
        <time>2023-11-03T09:44:31Z</time>
      </trkpt>
      <trkpt lat="47.29291" lon="-1.59351">
        <ele>52</ele>
        <time>2023-11-03T09:45:01Z</time>
      </trkpt>
      <trkpt lat="47.29299" lon="-1.5932">
        <ele>51</ele>
        <time>2023-11-03T09:45:31Z</time>
      </trkpt>
      <trkpt lat="47.29302" lon="-1.59288">
        <ele>50</ele>
        <time>2023-11-03T09:46:00Z</time>
      </trkpt>
      <trkpt lat="47.29309" lon="-1.59258">
        <ele>50</ele>
        <time>2023-11-03T09:46:29Z</time>
      </trkpt>
      <trkpt lat="47.29322" lon="-1.59234">
        <ele>49</ele>
        <time>2023-11-03T09:46:57Z</time>
      </trkpt>
      <trkpt lat="47.29344" lon="-1.59229">
        <ele>50</ele>
        <time>2023-11-03T09:47:27Z</time>
      </trkpt>
      <trkpt lat="47.29361" lon="-1.59222">
        <ele>50</ele>
        <time>2023-11-03T09:47:50Z</time>
      </trkpt>
      <trkpt lat="47.29352" lon="-1.59198">
        <ele>48</ele>
        <time>2023-11-03T09:48:15Z</time>
      </trkpt>
      <trkpt lat="47.29352" lon="-1.5917">
        <ele>46</ele>
        <time>2023-11-03T09:48:40Z</time>
      </trkpt>
      <trkpt lat="47.29359" lon="-1.59145">
        <ele>45</ele>
        <time>2023-11-03T09:49:05Z</time>
      </trkpt>
      <trkpt lat="47.29369" lon="-1.59123">
        <ele>44</ele>
        <time>2023-11-03T09:49:29Z</time>
      </trkpt>
      <trkpt lat="47.2938" lon="-1.59098">
        <ele>43</ele>
        <time>2023-11-03T09:49:56Z</time>
      </trkpt>
      <trkpt lat="47.29392" lon="-1.59075">
        <ele>43</ele>
        <time>2023-11-03T09:50:22Z</time>
      </trkpt>
      <trkpt lat="47.29409" lon="-1.5906">
        <ele>43</ele>
        <time>2023-11-03T09:50:49Z</time>
      </trkpt>
      <trkpt lat="47.29425" lon="-1.59038">
        <ele>43</ele>
        <time>2023-11-03T09:51:18Z</time>
      </trkpt>
      <trkpt lat="47.29438" lon="-1.59018">
        <ele>42</ele>
        <time>2023-11-03T09:51:43Z</time>
      </trkpt>
      <trkpt lat="47.29445" lon="-1.58993">
        <ele>41</ele>
        <time>2023-11-03T09:52:07Z</time>
      </trkpt>
      <trkpt lat="47.29443" lon="-1.58963">
        <ele>40</ele>
        <time>2023-11-03T09:52:35Z</time>
      </trkpt>
      <trkpt lat="47.29435" lon="-1.58933">
        <ele>39</ele>
        <time>2023-11-03T09:53:04Z</time>
      </trkpt>
      <trkpt lat="47.29436" lon="-1.58905">
        <ele>38</ele>
        <time>2023-11-03T09:53:29Z</time>
      </trkpt>
      <trkpt lat="47.2943" lon="-1.58879">
        <ele>37</ele>
        <time>2023-11-03T09:53:54Z</time>
      </trkpt>
      <trkpt lat="47.29429" lon="-1.58852">
        <ele>37</ele>
        <time>2023-11-03T09:54:18Z</time>
      </trkpt>
      <trkpt lat="47.29427" lon="-1.58819">
        <ele>36</ele>
        <time>2023-11-03T09:54:48Z</time>
      </trkpt>
      <trkpt lat="47.29433" lon="-1.58791">
        <ele>35</ele>
        <time>2023-11-03T09:55:15Z</time>
      </trkpt>
      <trkpt lat="47.29439" lon="-1.58764">
        <ele>35</ele>
        <time>2023-11-03T09:55:41Z</time>
      </trkpt>
      <trkpt lat="47.29441" lon="-1.58735">
        <ele>34</ele>
        <time>2023-11-03T09:56:07Z</time>
      </trkpt>
      <trkpt lat="47.29444" lon="-1.58708">
        <ele>34</ele>
        <time>2023-11-03T09:56:32Z</time>
      </trkpt>
      <trkpt lat="47.29446" lon="-1.58677">
        <ele>34</ele>
        <time>2023-11-03T09:57:00Z</time>
      </trkpt>
      <trkpt lat="47.29447" lon="-1.58647">
        <ele>33</ele>
        <time>2023-11-03T09:57:27Z</time>
      </trkpt>
      <trkpt lat="47.29445" lon="-1.58621">
        <ele>32</ele>
        <time>2023-11-03T09:57:51Z</time>
      </trkpt>
      <trkpt lat="47.29442" lon="-1.58591">
        <ele>31</ele>
        <time>2023-11-03T09:58:18Z</time>
      </trkpt>
      <trkpt lat="47.29442" lon="-1.58561">
        <ele>32</ele>
        <time>2023-11-03T09:58:46Z</time>
      </trkpt>
      <trkpt lat="47.29439" lon="-1.58534">
        <ele>32</ele>
        <time>2023-11-03T09:59:10Z</time>
      </trkpt>
      <trkpt lat="47.29437" lon="-1.58501">
        <ele>33</ele>
        <time>2023-11-03T09:59:40Z</time>
      </trkpt>
      <trkpt lat="47.29433" lon="-1.58471">
        <ele>34</ele>
        <time>2023-11-03T10:00:08Z</time>
      </trkpt>
      <trkpt lat="47.29436" lon="-1.58439">
        <ele>35</ele>
        <time>2023-11-03T10:00:37Z</time>
      </trkpt>
      <trkpt lat="47.29441" lon="-1.58412">
        <ele>36</ele>
        <time>2023-11-03T10:01:03Z</time>
      </trkpt>
      <trkpt lat="47.29447" lon="-1.58383">
        <ele>36</ele>
        <time>2023-11-03T10:01:30Z</time>
      </trkpt>
      <trkpt lat="47.29445" lon="-1.58353">
        <ele>36</ele>
        <time>2023-11-03T10:01:57Z</time>
      </trkpt>
      <trkpt lat="47.29437" lon="-1.58326">
        <ele>37</ele>
        <time>2023-11-03T10:02:24Z</time>
      </trkpt>
      <trkpt lat="47.2943" lon="-1.58293">
        <ele>37</ele>
        <time>2023-11-03T10:02:55Z</time>
      </trkpt>
      <trkpt lat="47.29419" lon="-1.58266">
        <ele>38</ele>
        <time>2023-11-03T10:03:24Z</time>
      </trkpt>
      <trkpt lat="47.29414" lon="-1.58234">
        <ele>38</ele>
        <time>2023-11-03T10:03:53Z</time>
      </trkpt>
      <trkpt lat="47.29417" lon="-1.58201">
        <ele>39</ele>
        <time>2023-11-03T10:04:24Z</time>
      </trkpt>
      <trkpt lat="47.29419" lon="-1.58173">
        <ele>39</ele>
        <time>2023-11-03T10:04:49Z</time>
      </trkpt>
      <trkpt lat="47.29411" lon="-1.58142">
        <ele>38</ele>
        <time>2023-11-03T10:05:19Z</time>
      </trkpt>
      <trkpt lat="47.29403" lon="-1.58117">
        <ele>38</ele>
        <time>2023-11-03T10:05:44Z</time>
      </trkpt>
      <trkpt lat="47.29394" lon="-1.58093">
        <ele>37</ele>
        <time>2023-11-03T10:06:09Z</time>
      </trkpt>
      <trkpt lat="47.29383" lon="-1.58063">
        <ele>36</ele>
        <time>2023-11-03T10:06:40Z</time>
      </trkpt>
      <trkpt lat="47.29366" lon="-1.58047">
        <ele>36</ele>
        <time>2023-11-03T10:07:07Z</time>
      </trkpt>
      <trkpt lat="47.29347" lon="-1.58046">
        <ele>36</ele>
        <time>2023-11-03T10:07:32Z</time>
      </trkpt>
      <trkpt lat="47.29332" lon="-1.58027">
        <ele>35</ele>
        <time>2023-11-03T10:07:58Z</time>
      </trkpt>
      <trkpt lat="47.29323" lon="-1.58004">
        <ele>34</ele>
        <time>2023-11-03T10:08:22Z</time>
      </trkpt>
      <trkpt lat="47.29312" lon="-1.57978">
        <ele>32</ele>
        <time>2023-11-03T10:08:50Z</time>
      </trkpt>
      <trkpt lat="47.293" lon="-1.57953">
        <ele>30</ele>
        <time>2023-11-03T10:09:18Z</time>
      </trkpt>
      <trkpt lat="47.29286" lon="-1.57925">
        <ele>28</ele>
        <time>2023-11-03T10:09:49Z</time>
      </trkpt>
      <trkpt lat="47.2927" lon="-1.57903">
        <ele>26</ele>
        <time>2023-11-03T10:10:19Z</time>
      </trkpt>
      <trkpt lat="47.29255" lon="-1.57881">
        <ele>24</ele>
        <time>2023-11-03T10:10:47Z</time>
      </trkpt>
      <trkpt lat="47.29238" lon="-1.57865">
        <ele>24</ele>
        <time>2023-11-03T10:11:14Z</time>
      </trkpt>
      <trkpt lat="47.29224" lon="-1.57846">
        <ele>23</ele>
        <time>2023-11-03T10:11:39Z</time>
      </trkpt>
      <trkpt lat="47.29215" lon="-1.57816">
        <ele>22</ele>
        <time>2023-11-03T10:12:09Z</time>
      </trkpt>
      <trkpt lat="47.29209" lon="-1.57786">
        <ele>21</ele>
        <time>2023-11-03T10:12:37Z</time>
      </trkpt>
      <trkpt lat="47.292" lon="-1.57754">
        <ele>20</ele>
        <time>2023-11-03T10:13:09Z</time>
      </trkpt>
      <trkpt lat="47.29191" lon="-1.57728">
        <ele>20</ele>
        <time>2023-11-03T10:13:35Z</time>
      </trkpt>
      <trkpt lat="47.29199" lon="-1.57701">
        <ele>21</ele>
        <time>2023-11-03T10:14:02Z</time>
      </trkpt>
      <trkpt lat="47.29205" lon="-1.57673">
        <ele>21</ele>
        <time>2023-11-03T10:14:28Z</time>
      </trkpt>
      <trkpt lat="47.29214" lon="-1.57649">
        <ele>20</ele>
        <time>2023-11-03T10:14:53Z</time>
      </trkpt>
      <trkpt lat="47.2923" lon="-1.57591">
        <ele>19</ele>
        <time>2023-11-03T10:15:50Z</time>
      </trkpt>
      <trkpt lat="47.29242" lon="-1.57564">
        <ele>18</ele>
        <time>2023-11-03T10:16:19Z</time>
      </trkpt>
      <trkpt lat="47.29225" lon="-1.57549">
        <ele>19</ele>
        <time>2023-11-03T10:16:45Z</time>
      </trkpt>
      <trkpt lat="47.29208" lon="-1.57541">
        <ele>20</ele>
        <time>2023-11-03T10:17:09Z</time>
      </trkpt>
      <trkpt lat="47.29188" lon="-1.57552">
        <ele>21</ele>
        <time>2023-11-03T10:17:38Z</time>
      </trkpt>
      <trkpt lat="47.29175" lon="-1.57578">
        <ele>22</ele>
        <time>2023-11-03T10:18:07Z</time>
      </trkpt>
      <trkpt lat="47.29154" lon="-1.57581">
        <ele>24</ele>
        <time>2023-11-03T10:18:35Z</time>
      </trkpt>
      <trkpt lat="47.29131" lon="-1.57574">
        <ele>25</ele>
        <time>2023-11-03T10:19:06Z</time>
      </trkpt>
      <trkpt lat="47.29112" lon="-1.57573">
        <ele>27</ele>
        <time>2023-11-03T10:19:32Z</time>
      </trkpt>
      <trkpt lat="47.29093" lon="-1.57569">
        <ele>28</ele>
        <time>2023-11-03T10:19:57Z</time>
      </trkpt>
      <trkpt lat="47.29074" lon="-1.57561">
        <ele>29</ele>
        <time>2023-11-03T10:20:24Z</time>
      </trkpt>
      <trkpt lat="47.29055" lon="-1.57559">
        <ele>30</ele>
        <time>2023-11-03T10:20:49Z</time>
      </trkpt>
      <trkpt lat="47.29036" lon="-1.57561">
        <ele>31</ele>
        <time>2023-11-03T10:21:15Z</time>
      </trkpt>
      <trkpt lat="47.29029" lon="-1.57534">
        <ele>32</ele>
        <time>2023-11-03T10:21:41Z</time>
      </trkpt>
      <trkpt lat="47.29034" lon="-1.57507">
        <ele>32</ele>
        <time>2023-11-03T10:22:06Z</time>
      </trkpt>
      <trkpt lat="47.29038" lon="-1.57479">
        <ele>32</ele>
        <time>2023-11-03T10:22:32Z</time>
      </trkpt>
      <trkpt lat="47.29038" lon="-1.57452">
        <ele>32</ele>
        <time>2023-11-03T10:22:56Z</time>
      </trkpt>
      <trkpt lat="47.29039" lon="-1.57423">
        <ele>32</ele>
        <time>2023-11-03T10:23:23Z</time>
      </trkpt>
      <trkpt lat="47.29037" lon="-1.57395">
        <ele>33</ele>
        <time>2023-11-03T10:23:48Z</time>
      </trkpt>
      <trkpt lat="47.29037" lon="-1.57364">
        <ele>33</ele>
        <time>2023-11-03T10:24:16Z</time>
      </trkpt>
      <trkpt lat="47.29038" lon="-1.57337">
        <ele>33</ele>
        <time>2023-11-03T10:24:41Z</time>
      </trkpt>
      <trkpt lat="47.29038" lon="-1.57308">
        <ele>33</ele>
        <time>2023-11-03T10:25:07Z</time>
      </trkpt>
      <trkpt lat="47.29034" lon="-1.57249">
        <ele>33</ele>
        <time>2023-11-03T10:26:01Z</time>
      </trkpt>
      <trkpt lat="47.2903" lon="-1.57218">
        <ele>34</ele>
        <time>2023-11-03T10:26:29Z</time>
      </trkpt>
      <trkpt lat="47.29031" lon="-1.57188">
        <ele>35</ele>
        <time>2023-11-03T10:26:56Z</time>
      </trkpt>
      <trkpt lat="47.2903" lon="-1.57159">
        <ele>35</ele>
        <time>2023-11-03T10:27:23Z</time>
      </trkpt>
      <trkpt lat="47.29021" lon="-1.57133">
        <ele>36</ele>
        <time>2023-11-03T10:27:49Z</time>
      </trkpt>
      <trkpt lat="47.29024" lon="-1.57106">
        <ele>36</ele>
        <time>2023-11-03T10:28:14Z</time>
      </trkpt>
      <trkpt lat="47.29035" lon="-1.57081">
        <ele>35</ele>
        <time>2023-11-03T10:28:41Z</time>
      </trkpt>
      <trkpt lat="47.29049" lon="-1.57063">
        <ele>34</ele>
        <time>2023-11-03T10:29:06Z</time>
      </trkpt>
      <trkpt lat="47.29061" lon="-1.57039">
        <ele>34</ele>
        <time>2023-11-03T10:29:33Z</time>
      </trkpt>
      <trkpt lat="47.29074" lon="-1.57017">
        <ele>34</ele>
        <time>2023-11-03T10:29:59Z</time>
      </trkpt>
      <trkpt lat="47.2909" lon="-1.56999">
        <ele>34</ele>
        <time>2023-11-03T10:30:26Z</time>
      </trkpt>
      <trkpt lat="47.29109" lon="-1.56983">
        <ele>33</ele>
        <time>2023-11-03T10:30:55Z</time>
      </trkpt>
      <trkpt lat="47.29126" lon="-1.56965">
        <ele>32</ele>
        <time>2023-11-03T10:31:23Z</time>
      </trkpt>
      <trkpt lat="47.29147" lon="-1.56952">
        <ele>32</ele>
        <time>2023-11-03T10:31:53Z</time>
      </trkpt>
      <trkpt lat="47.2916" lon="-1.56933">
        <ele>32</ele>
        <time>2023-11-03T10:32:18Z</time>
      </trkpt>
      <trkpt lat="47.29174" lon="-1.56912">
        <ele>31</ele>
        <time>2023-11-03T10:32:44Z</time>
      </trkpt>
      <trkpt lat="47.29186" lon="-1.56891">
        <ele>29</ele>
        <time>2023-11-03T10:33:09Z</time>
      </trkpt>
      <trkpt lat="47.292" lon="-1.56866">
        <ele>26</ele>
        <time>2023-11-03T10:33:39Z</time>
      </trkpt>
      <trkpt lat="47.29216" lon="-1.56845">
        <ele>24</ele>
        <time>2023-11-03T10:34:07Z</time>
      </trkpt>
      <trkpt lat="47.29232" lon="-1.56828">
        <ele>22</ele>
        <time>2023-11-03T10:34:34Z</time>
      </trkpt>
      <trkpt lat="47.29252" lon="-1.56794">
        <ele>18</ele>
        <time>2023-11-03T10:35:14Z</time>
      </trkpt>
      <trkpt lat="47.29258" lon="-1.56749">
        <ele>14</ele>
        <time>2023-11-03T10:35:56Z</time>
      </trkpt>
      <trkpt lat="47.29241" lon="-1.5668">
        <ele>16</ele>
        <time>2023-11-03T10:37:02Z</time>
      </trkpt>
      <trkpt lat="47.29227" lon="-1.56638">
        <ele>18</ele>
        <time>2023-11-03T10:37:45Z</time>
      </trkpt>
      <trkpt lat="47.29191" lon="-1.56629">
        <ele>19</ele>
        <time>2023-11-03T10:38:33Z</time>
      </trkpt>
      <trkpt lat="47.29137" lon="-1.56623">
        <ele>18</ele>
        <time>2023-11-03T10:39:46Z</time>
      </trkpt>
      <trkpt lat="47.29108" lon="-1.56581">
        <ele>21</ele>
        <time>2023-11-03T10:40:40Z</time>
      </trkpt>
      <trkpt lat="47.29076" lon="-1.56483">
        <ele>29</ele>
        <time>2023-11-03T10:42:18Z</time>
      </trkpt>
      <trkpt lat="47.29048" lon="-1.56451">
        <ele>31</ele>
        <time>2023-11-03T10:43:06Z</time>
      </trkpt>
      <trkpt lat="47.28955" lon="-1.56455">
        <ele>32</ele>
        <time>2023-11-03T10:45:10Z</time>
      </trkpt>
      <trkpt lat="47.28892" lon="-1.5652">
        <ele>28</ele>
        <time>2023-11-03T10:46:52Z</time>
      </trkpt>
      <trkpt lat="47.28852" lon="-1.56623">
        <ele>19</ele>
        <time>2023-11-03T10:48:40Z</time>
      </trkpt>
      <trkpt lat="47.28842" lon="-1.56744">
        <ele>15</ele>
        <time>2023-11-03T10:50:30Z</time>
      </trkpt>
      <trkpt lat="47.28815" lon="-1.56761">
        <ele>15</ele>
        <time>2023-11-03T10:51:09Z</time>
      </trkpt>
      <trkpt lat="47.28758" lon="-1.56742">
        <ele>13</ele>
        <time>2023-11-03T10:52:27Z</time>
      </trkpt>
      <trkpt lat="47.2868" lon="-1.56688">
        <ele>13</ele>
        <time>2023-11-03T10:54:22Z</time>
      </trkpt>
      <trkpt lat="47.28577" lon="-1.56642">
        <ele>13</ele>
        <time>2023-11-03T10:56:46Z</time>
      </trkpt>
      <trkpt lat="47.2856" lon="-1.56564">
        <ele>17</ele>
        <time>2023-11-03T10:58:00Z</time>
      </trkpt>
      <trkpt lat="47.28534" lon="-1.56474">
        <ele>24</ele>
        <time>2023-11-03T10:59:29Z</time>
      </trkpt>
      <trkpt lat="47.28494" lon="-1.56464">
        <ele>24</ele>
        <time>2023-11-03T11:00:23Z</time>
      </trkpt>
      <trkpt lat="47.28424" lon="-1.56494">
        <ele>17</ele>
        <time>2023-11-03T11:02:00Z</time>
      </trkpt>
      <trkpt lat="47.28398" lon="-1.5648">
        <ele>18</ele>
        <time>2023-11-03T11:02:37Z</time>
      </trkpt>
      <trkpt lat="47.2837" lon="-1.56485">
        <ele>17</ele>
        <time>2023-11-03T11:03:15Z</time>
      </trkpt>
      <trkpt lat="47.2835" lon="-1.56472">
        <ele>18</ele>
        <time>2023-11-03T11:03:44Z</time>
      </trkpt>
      <trkpt lat="47.28225" lon="-1.56498">
        <ele>21</ele>
        <time>2023-11-03T11:06:32Z</time>
      </trkpt>
      <trkpt lat="47.28173" lon="-1.56571">
        <ele>19</ele>
        <time>2023-11-03T11:08:08Z</time>
      </trkpt>
      <trkpt lat="47.28118" lon="-1.56592">
        <ele>20</ele>
        <time>2023-11-03T11:09:24Z</time>
      </trkpt>
      <trkpt lat="47.28076" lon="-1.56612">
        <ele>20</ele>
        <time>2023-11-03T11:10:23Z</time>
      </trkpt>
      <trkpt lat="47.2801" lon="-1.56619">
        <ele>19</ele>
        <time>2023-11-03T11:11:51Z</time>
      </trkpt>
      <trkpt lat="47.27978" lon="-1.56601">
        <ele>19</ele>
        <time>2023-11-03T11:12:37Z</time>
      </trkpt>
      <trkpt lat="47.27934" lon="-1.56609">
        <ele>17</ele>
        <time>2023-11-03T11:13:36Z</time>
      </trkpt>
      <trkpt lat="47.27936" lon="-1.5665">
        <ele>16</ele>
        <time>2023-11-03T11:14:13Z</time>
      </trkpt>
      <trkpt lat="47.27934" lon="-1.56624">
        <ele>17</ele>
        <time>2023-11-03T11:14:37Z</time>
      </trkpt>
      <trkpt lat="47.27921" lon="-1.566">
        <ele>16</ele>
        <time>2023-11-03T11:15:05Z</time>
      </trkpt>
      <trkpt lat="47.27889" lon="-1.56563">
        <ele>15</ele>
        <time>2023-11-03T11:15:59Z</time>
      </trkpt>
      <trkpt lat="47.27873" lon="-1.56546">
        <ele>14</ele>
        <time>2023-11-03T11:16:25Z</time>
      </trkpt>
      <trkpt lat="47.27861" lon="-1.56526">
        <ele>14</ele>
        <time>2023-11-03T11:16:49Z</time>
      </trkpt>
      <trkpt lat="47.27853" lon="-1.56502">
        <ele>14</ele>
        <time>2023-11-03T11:17:14Z</time>
      </trkpt>
      <trkpt lat="47.27864" lon="-1.56475">
        <ele>16</ele>
        <time>2023-11-03T11:17:42Z</time>
      </trkpt>
      <trkpt lat="47.27871" lon="-1.56451">
        <ele>18</ele>
        <time>2023-11-03T11:18:06Z</time>
      </trkpt>
      <trkpt lat="47.2788" lon="-1.56424">
        <ele>21</ele>
        <time>2023-11-03T11:18:33Z</time>
      </trkpt>
      <trkpt lat="47.27888" lon="-1.56396">
        <ele>24</ele>
        <time>2023-11-03T11:19:01Z</time>
      </trkpt>
      <trkpt lat="47.27907" lon="-1.56399">
        <ele>26</ele>
        <time>2023-11-03T11:19:26Z</time>
      </trkpt>
      <trkpt lat="47.27923" lon="-1.56379">
        <ele>28</ele>
        <time>2023-11-03T11:19:54Z</time>
      </trkpt>
      <trkpt lat="47.27925" lon="-1.5635">
        <ele>29</ele>
        <time>2023-11-03T11:20:20Z</time>
      </trkpt>
      <trkpt lat="47.2793" lon="-1.56319">
        <ele>30</ele>
        <time>2023-11-03T11:20:49Z</time>
      </trkpt>
      <trkpt lat="47.27944" lon="-1.563">
        <ele>32</ele>
        <time>2023-11-03T11:21:15Z</time>
      </trkpt>
      <trkpt lat="47.2796" lon="-1.56274">
        <ele>33</ele>
        <time>2023-11-03T11:21:46Z</time>
      </trkpt>
      <trkpt lat="47.27945" lon="-1.56252">
        <ele>34</ele>
        <time>2023-11-03T11:22:15Z</time>
      </trkpt>
      <trkpt lat="47.27927" lon="-1.56239">
        <ele>34</ele>
        <time>2023-11-03T11:22:41Z</time>
      </trkpt>
      <trkpt lat="47.27936" lon="-1.56181">
        <ele>36</ele>
        <time>2023-11-03T11:23:35Z</time>
      </trkpt>
      <trkpt lat="47.27941" lon="-1.56154">
        <ele>37</ele>
        <time>2023-11-03T11:24:01Z</time>
      </trkpt>
      <trkpt lat="47.27944" lon="-1.56126">
        <ele>37</ele>
        <time>2023-11-03T11:24:26Z</time>
      </trkpt>
      <trkpt lat="47.27944" lon="-1.56097">
        <ele>38</ele>
        <time>2023-11-03T11:24:53Z</time>
      </trkpt>
      <trkpt lat="47.27952" lon="-1.56069">
        <ele>38</ele>
        <time>2023-11-03T11:25:20Z</time>
      </trkpt>
      <trkpt lat="47.27952" lon="-1.56035">
        <ele>38</ele>
        <time>2023-11-03T11:25:51Z</time>
      </trkpt>
      <trkpt lat="47.27955" lon="-1.56007">
        <ele>38</ele>
        <time>2023-11-03T11:26:16Z</time>
      </trkpt>
      <trkpt lat="47.27958" lon="-1.5598">
        <ele>37</ele>
        <time>2023-11-03T11:26:41Z</time>
      </trkpt>
      <trkpt lat="47.27959" lon="-1.55952">
        <ele>36</ele>
        <time>2023-11-03T11:27:07Z</time>
      </trkpt>
      <trkpt lat="47.27959" lon="-1.55918">
        <ele>36</ele>
        <time>2023-11-03T11:27:37Z</time>
      </trkpt>
      <trkpt lat="47.2796" lon="-1.55889">
        <ele>36</ele>
        <time>2023-11-03T11:28:04Z</time>
      </trkpt>
      <trkpt lat="47.27966" lon="-1.55859">
        <ele>37</ele>
        <time>2023-11-03T11:28:32Z</time>
      </trkpt>
      <trkpt lat="47.27969" lon="-1.5583">
        <ele>38</ele>
        <time>2023-11-03T11:28:59Z</time>
      </trkpt>
      <trkpt lat="47.27972" lon="-1.55803">
        <ele>38</ele>
        <time>2023-11-03T11:29:23Z</time>
      </trkpt>
      <trkpt lat="47.27975" lon="-1.55771">
        <ele>39</ele>
        <time>2023-11-03T11:29:53Z</time>
      </trkpt>
      <trkpt lat="47.27975" lon="-1.55744">
        <ele>39</ele>
        <time>2023-11-03T11:30:17Z</time>
      </trkpt>
      <trkpt lat="47.27983" lon="-1.5572">
        <ele>40</ele>
        <time>2023-11-03T11:30:41Z</time>
      </trkpt>
    </trkseg>
  </trk>
</gpx>